Zurück zum Katalog

ARIANE 42P DEB

AktivLEO
NORAD 44513·DEBRIS·🇫🇷 France

Gestartet Aug 10, 1992 von Guiana Space Centre

Loading…

Nächste Überflüge (nächste 24 Stunden)

TLE

AlterndSource: Space-Track

Epoche: Sep 11, 2026, 01:14 UTC

1 44513U 92052L   26254.05207954 -.00000459  00000-0 -17355-2 0  9999
2 44513  66.0396 124.1885 0056712 257.7630 101.7030 12.80039190329716

Verfolge ARIANE 42P DEB in Echtzeit mit AllMySat

Download on the App Store